Year,Month,Day,Hour,Minute,Value (Times are PST for temperature in C)
2007,08,02,00,00,16.90
2007,08,02,00,01,16.90
2007,08,02,00,02,16.90
2007,08,02,00,03,16.90
2007,08,02,00,04,16.90
2007,08,02,00,05,16.90
2007,08,02,00,06,16.90
2007,08,02,00,07,16.90
2007,08,02,00,08,16.80
2007,08,02,00,09,16.80
2007,08,02,00,10,16.80
2007,08,02,00,11,16.80
2007,08,02,00,12,16.70
2007,08,02,00,13,16.70
2007,08,02,00,14,16.70
2007,08,02,00,15,16.60
2007,08,02,00,16,16.60
2007,08,02,00,17,16.60
2007,08,02,00,18,16.50
2007,08,02,00,19,16.50
2007,08,02,00,20,16.50
2007,08,02,00,21,16.50
2007,08,02,00,22,16.50
2007,08,02,00,23,16.40
2007,08,02,00,24,16.40
2007,08,02,00,25,16.40
2007,08,02,00,26,16.40
2007,08,02,00,27,16.40
2007,08,02,00,28,16.40
2007,08,02,00,29,16.40
2007,08,02,00,30,16.40
2007,08,02,00,31,16.40
2007,08,02,00,32,16.40
2007,08,02,00,33,16.30
2007,08,02,00,34,16.30
2007,08,02,00,35,16.30
2007,08,02,00,36,16.30
2007,08,02,00,37,16.30
2007,08,02,00,38,16.30
2007,08,02,00,39,16.30
2007,08,02,00,40,16.30
2007,08,02,00,41,16.30
2007,08,02,00,42,16.30
2007,08,02,00,43,16.30
2007,08,02,00,44,16.30
2007,08,02,00,45,16.30
2007,08,02,00,46,16.20
2007,08,02,00,47,16.20
2007,08,02,00,48,16.20
2007,08,02,00,49,16.20
2007,08,02,00,50,16.20
2007,08,02,00,51,16.20
2007,08,02,00,52,16.10
2007,08,02,00,53,16.20
2007,08,02,00,54,16.20
2007,08,02,00,55,16.20
2007,08,02,00,56,16.30
2007,08,02,00,57,16.30
2007,08,02,00,58,16.30
2007,08,02,00,59,16.30
2007,08,02,01,00,16.30
2007,08,02,01,01,16.30
2007,08,02,01,02,16.30
2007,08,02,01,03,16.30
2007,08,02,01,04,16.30
2007,08,02,01,05,16.30
2007,08,02,01,06,16.40
2007,08,02,01,07,16.40
2007,08,02,01,08,16.40
2007,08,02,01,09,16.40
2007,08,02,01,10,16.40
2007,08,02,01,11,16.40
2007,08,02,01,12,16.40
2007,08,02,01,13,16.40
2007,08,02,01,14,16.40
2007,08,02,01,15,16.40
2007,08,02,01,16,16.30
2007,08,02,01,17,16.30
2007,08,02,01,18,16.30
2007,08,02,01,19,16.30
2007,08,02,01,20,16.20
2007,08,02,01,21,16.20
2007,08,02,01,22,16.20
2007,08,02,01,23,16.20
2007,08,02,01,24,16.10
2007,08,02,01,25,16.10
2007,08,02,01,26,16.10
2007,08,02,01,27,16.00
2007,08,02,01,28,16.00
2007,08,02,01,29,16.00
2007,08,02,01,30,15.90
2007,08,02,01,31,15.90
2007,08,02,01,32,15.90
2007,08,02,01,33,15.90
2007,08,02,01,34,15.80
2007,08,02,01,35,15.80
2007,08,02,01,36,15.80
2007,08,02,01,37,15.80
2007,08,02,01,38,15.70
2007,08,02,01,39,15.70
2007,08,02,01,40,15.70
2007,08,02,01,41,15.70
2007,08,02,01,42,15.60
2007,08,02,01,43,15.60
2007,08,02,01,44,15.60
2007,08,02,01,45,15.60
2007,08,02,01,46,15.60
2007,08,02,01,47,15.50
2007,08,02,01,48,15.50
2007,08,02,01,49,15.50
2007,08,02,01,50,15.40
2007,08,02,01,51,15.40
2007,08,02,01,52,15.40
2007,08,02,01,53,15.50
2007,08,02,01,54,15.50
2007,08,02,01,55,15.50
2007,08,02,01,56,15.50
2007,08,02,01,57,15.50
2007,08,02,01,58,15.50
2007,08,02,01,59,15.60
2007,08,02,02,00,15.60
2007,08,02,02,01,15.60
2007,08,02,02,02,15.60
2007,08,02,02,03,15.60
2007,08,02,02,04,15.60
2007,08,02,02,05,15.60
2007,08,02,02,06,15.60
2007,08,02,02,07,15.60
2007,08,02,02,08,15.60
2007,08,02,02,09,15.60
2007,08,02,02,10,15.60
2007,08,02,02,11,15.60
2007,08,02,02,12,15.60
2007,08,02,02,13,15.50
2007,08,02,02,14,15.50
2007,08,02,02,15,15.50
2007,08,02,02,16,15.50
2007,08,02,02,17,15.50
2007,08,02,02,18,15.50
2007,08,02,02,19,15.40
2007,08,02,02,20,15.40
2007,08,02,02,21,15.40
2007,08,02,02,22,15.40
2007,08,02,02,23,15.40
2007,08,02,02,24,15.40
2007,08,02,02,25,15.30
2007,08,02,02,26,15.30
2007,08,02,02,27,15.30
2007,08,02,02,28,15.30
2007,08,02,02,29,15.30
2007,08,02,02,30,15.30
2007,08,02,02,31,15.30
2007,08,02,02,32,15.30
2007,08,02,02,33,15.30
2007,08,02,02,34,15.30
2007,08,02,02,35,15.30
2007,08,02,02,36,15.30
2007,08,02,02,37,15.40
2007,08,02,02,38,15.40
2007,08,02,02,39,15.40
2007,08,02,02,40,15.50
2007,08,02,02,41,15.50
2007,08,02,02,42,15.60
2007,08,02,02,43,15.60
2007,08,02,02,44,15.70
2007,08,02,02,45,15.70
2007,08,02,02,46,15.70
2007,08,02,02,47,15.80
2007,08,02,02,48,15.80
2007,08,02,02,49,15.80
2007,08,02,02,50,15.80
2007,08,02,02,51,15.80
2007,08,02,02,52,15.90
2007,08,02,02,53,15.90
2007,08,02,02,54,15.90
2007,08,02,02,55,15.90
2007,08,02,02,56,15.90
2007,08,02,02,57,15.90
2007,08,02,02,58,15.90
2007,08,02,02,59,15.80
2007,08,02,03,00,15.80
2007,08,02,03,01,15.80
2007,08,02,03,02,15.80
2007,08,02,03,03,15.80
2007,08,02,03,04,15.80
2007,08,02,03,05,15.80
2007,08,02,03,06,15.80
2007,08,02,03,07,15.80
2007,08,02,03,08,15.80
2007,08,02,03,09,15.70
2007,08,02,03,10,15.70
2007,08,02,03,11,15.70
2007,08,02,03,12,15.70
2007,08,02,03,13,15.70
2007,08,02,03,14,15.70
2007,08,02,03,15,15.70
2007,08,02,03,16,15.60
2007,08,02,03,17,15.60
2007,08,02,03,18,15.60
2007,08,02,03,19,15.50
2007,08,02,03,20,15.40
2007,08,02,03,21,15.40
2007,08,02,03,22,15.40
2007,08,02,03,23,15.30
2007,08,02,03,24,15.30
2007,08,02,03,25,15.20
2007,08,02,03,26,15.10
2007,08,02,03,27,15.10
2007,08,02,03,28,15.00
2007,08,02,03,29,15.00
2007,08,02,03,30,15.00
2007,08,02,03,31,15.00
2007,08,02,03,32,15.00
2007,08,02,03,33,15.00
2007,08,02,03,34,15.00
2007,08,02,03,35,14.90
2007,08,02,03,36,14.90
2007,08,02,03,37,14.90
2007,08,02,03,38,14.80
2007,08,02,03,39,14.80
2007,08,02,03,40,14.80
2007,08,02,03,41,14.80
2007,08,02,03,42,14.80
2007,08,02,03,43,14.80
2007,08,02,03,44,14.70
2007,08,02,03,45,14.70
2007,08,02,03,46,14.70
2007,08,02,03,47,14.70
2007,08,02,03,48,14.70
2007,08,02,03,49,14.70
2007,08,02,03,50,14.70
2007,08,02,03,51,14.70
2007,08,02,03,52,14.70
2007,08,02,03,53,14.70
2007,08,02,03,54,14.60
2007,08,02,03,55,14.60
2007,08,02,03,56,14.60
2007,08,02,03,57,14.50
2007,08,02,03,58,14.50
2007,08,02,03,59,14.50
2007,08,02,04,00,14.50
2007,08,02,04,01,14.50
2007,08,02,04,02,14.50
2007,08,02,04,03,14.50
2007,08,02,04,04,14.50
2007,08,02,04,05,14.50
2007,08,02,04,06,14.50
2007,08,02,04,07,14.50
2007,08,02,04,08,14.50
2007,08,02,04,09,14.50
2007,08,02,04,10,14.50
2007,08,02,04,11,14.50
2007,08,02,04,12,14.50
2007,08,02,04,13,14.50
2007,08,02,04,14,14.50
2007,08,02,04,15,14.50
2007,08,02,04,16,14.50
2007,08,02,04,17,14.60
2007,08,02,04,18,14.50
2007,08,02,04,19,14.50
2007,08,02,04,20,14.50
2007,08,02,04,21,14.40
2007,08,02,04,22,14.40
2007,08,02,04,23,14.30
2007,08,02,04,24,14.30
2007,08,02,04,25,14.30
2007,08,02,04,26,14.20
2007,08,02,04,27,14.20
2007,08,02,04,28,14.20
2007,08,02,04,29,14.10
2007,08,02,04,30,14.10
2007,08,02,04,31,14.10
2007,08,02,04,32,14.10
2007,08,02,04,33,14.10
2007,08,02,04,34,14.00
2007,08,02,04,35,14.00
2007,08,02,04,36,14.00
2007,08,02,04,37,14.00
2007,08,02,04,38,13.90
2007,08,02,04,39,13.90
2007,08,02,04,40,13.90
2007,08,02,04,41,13.90
2007,08,02,04,42,13.90
2007,08,02,04,43,13.90
2007,08,02,04,44,13.80
2007,08,02,04,45,13.80
2007,08,02,04,46,13.80
2007,08,02,04,47,13.80
2007,08,02,04,48,13.80
2007,08,02,04,49,13.80
2007,08,02,04,50,13.80
2007,08,02,04,51,13.80
2007,08,02,04,52,13.80
2007,08,02,04,53,13.80
2007,08,02,04,54,13.80
2007,08,02,04,55,13.70
2007,08,02,04,56,13.70
2007,08,02,04,57,13.70
2007,08,02,04,58,13.70
2007,08,02,04,59,13.70
2007,08,02,05,00,13.70
2007,08,02,05,01,13.70
2007,08,02,05,02,13.60
2007,08,02,05,03,13.60
2007,08,02,05,04,13.60
2007,08,02,05,05,13.60
2007,08,02,05,06,13.50
2007,08,02,05,07,13.50
2007,08,02,05,08,13.50
2007,08,02,05,09,13.40
2007,08,02,05,10,13.40
2007,08,02,05,11,13.40
2007,08,02,05,12,13.40
2007,08,02,05,13,13.40
2007,08,02,05,14,13.30
2007,08,02,05,15,13.30
2007,08,02,05,16,13.30
2007,08,02,05,17,13.30
2007,08,02,05,18,13.30
2007,08,02,05,19,13.30
2007,08,02,05,20,13.30
2007,08,02,05,21,13.30
2007,08,02,05,22,13.20
2007,08,02,05,23,13.20
2007,08,02,05,24,13.20
2007,08,02,05,25,13.20
2007,08,02,05,26,13.20
2007,08,02,05,27,13.20
2007,08,02,05,28,13.10
2007,08,02,05,29,13.10
2007,08,02,05,30,13.10
2007,08,02,05,31,13.10
2007,08,02,05,32,13.10
2007,08,02,05,33,13.10
2007,08,02,05,34,13.10
2007,08,02,05,35,13.10
2007,08,02,05,36,13.20
2007,08,02,05,37,13.20
2007,08,02,05,38,13.20
2007,08,02,05,39,13.20
2007,08,02,05,40,13.20
2007,08,02,05,41,13.20
2007,08,02,05,42,13.20
2007,08,02,05,43,13.20
2007,08,02,05,44,13.20
2007,08,02,05,45,13.20
2007,08,02,05,46,13.20
2007,08,02,05,47,13.20
2007,08,02,05,48,13.20
2007,08,02,05,49,13.20
2007,08,02,05,50,13.20
2007,08,02,05,51,13.20
2007,08,02,05,52,13.20
2007,08,02,05,53,13.20
2007,08,02,05,54,13.20
2007,08,02,05,55,13.20
2007,08,02,05,56,13.20
2007,08,02,05,57,13.20
2007,08,02,05,58,13.20
2007,08,02,05,59,13.20
2007,08,02,06,00,13.20
2007,08,02,06,01,13.20
2007,08,02,06,02,13.20
2007,08,02,06,03,13.20
2007,08,02,06,04,13.20
2007,08,02,06,05,13.20
2007,08,02,06,06,13.20
2007,08,02,06,07,13.20
2007,08,02,06,08,13.20
2007,08,02,06,09,13.20
2007,08,02,06,10,13.20
2007,08,02,06,11,13.30
2007,08,02,06,12,13.30
2007,08,02,06,13,13.30
2007,08,02,06,14,13.30
2007,08,02,06,15,13.30
2007,08,02,06,16,13.30
2007,08,02,06,17,13.30
2007,08,02,06,18,13.40
2007,08,02,06,19,13.40
2007,08,02,06,20,13.40
2007,08,02,06,21,13.40
2007,08,02,06,22,13.40
2007,08,02,06,23,13.50
2007,08,02,06,24,13.50
2007,08,02,06,25,13.50
2007,08,02,06,26,13.60
2007,08,02,06,27,13.60
2007,08,02,06,28,13.60
2007,08,02,06,29,13.70
2007,08,02,06,30,13.70
2007,08,02,06,31,13.70
2007,08,02,06,32,13.80
2007,08,02,06,33,13.80
2007,08,02,06,34,13.90
2007,08,02,06,35,13.90
2007,08,02,06,36,14.00
2007,08,02,06,37,14.10
2007,08,02,06,38,14.10
2007,08,02,06,39,14.20
2007,08,02,06,40,14.30
2007,08,02,06,41,14.30
2007,08,02,06,42,14.40
2007,08,02,06,43,14.40
2007,08,02,06,44,14.50
2007,08,02,06,45,14.50
2007,08,02,06,46,14.50
2007,08,02,06,47,14.60
2007,08,02,06,48,14.60
2007,08,02,06,49,14.60
2007,08,02,06,50,14.60
2007,08,02,06,51,14.70
2007,08,02,06,52,14.70
2007,08,02,06,53,14.70
2007,08,02,06,54,14.70
2007,08,02,06,55,14.70
2007,08,02,06,56,14.70
2007,08,02,06,57,14.70
2007,08,02,06,58,14.70
2007,08,02,06,59,14.70
2007,08,02,07,00,14.80
2007,08,02,07,01,14.80
2007,08,02,07,02,14.90
2007,08,02,07,03,15.00
2007,08,02,07,04,15.00
2007,08,02,07,05,15.00
2007,08,02,07,06,15.00
2007,08,02,07,07,15.20
2007,08,02,07,08,15.20
2007,08,02,07,09,15.30
2007,08,02,07,10,15.30
2007,08,02,07,11,15.30
2007,08,02,07,12,15.30
2007,08,02,07,13,15.30
2007,08,02,07,14,15.30
2007,08,02,07,15,15.30
2007,08,02,07,16,15.40
2007,08,02,07,17,15.40
2007,08,02,07,18,15.50
2007,08,02,07,19,15.60
2007,08,02,07,20,15.70
2007,08,02,07,21,15.80
2007,08,02,07,22,15.90
2007,08,02,07,23,15.90
2007,08,02,07,24,16.00
2007,08,02,07,25,16.00
2007,08,02,07,26,16.10
2007,08,02,07,27,16.20
2007,08,02,07,28,16.20
2007,08,02,07,29,16.30
2007,08,02,07,30,16.30
2007,08,02,07,31,16.40
2007,08,02,07,32,16.40
2007,08,02,07,33,16.40
2007,08,02,07,34,16.40
2007,08,02,07,35,16.50
2007,08,02,07,36,16.50
2007,08,02,07,37,16.60
2007,08,02,07,38,16.60
2007,08,02,07,39,16.70
2007,08,02,07,40,16.70
2007,08,02,07,41,16.80
2007,08,02,07,42,16.80
2007,08,02,07,43,16.90
2007,08,02,07,44,16.90
2007,08,02,07,45,17.00
2007,08,02,07,46,17.00
2007,08,02,07,47,17.10
2007,08,02,07,48,17.10
2007,08,02,07,49,17.10
2007,08,02,07,50,17.10
2007,08,02,07,51,17.00
2007,08,02,07,52,17.00
2007,08,02,07,53,16.90
2007,08,02,07,54,16.80
2007,08,02,07,55,16.70
2007,08,02,07,56,16.60
2007,08,02,07,57,16.60
2007,08,02,07,58,16.50
2007,08,02,07,59,16.40
2007,08,02,08,00,16.40
2007,08,02,08,01,16.40
2007,08,02,08,02,16.40
2007,08,02,08,03,16.40
2007,08,02,08,04,16.50
2007,08,02,08,05,16.50
2007,08,02,08,06,16.60
2007,08,02,08,07,16.60
2007,08,02,08,08,16.70
2007,08,02,08,09,16.70
2007,08,02,08,10,16.80
2007,08,02,08,11,16.80
2007,08,02,08,12,16.90
2007,08,02,08,13,17.00
2007,08,02,08,14,17.10
2007,08,02,08,15,17.10
2007,08,02,08,16,17.10
2007,08,02,08,17,17.20
2007,08,02,08,18,17.20
2007,08,02,08,19,17.20
2007,08,02,08,20,17.30
2007,08,02,08,21,17.30
2007,08,02,08,22,17.40
2007,08,02,08,23,17.40
2007,08,02,08,24,17.40
2007,08,02,08,25,17.50
2007,08,02,08,26,17.50
2007,08,02,08,27,17.60
2007,08,02,08,28,17.70
2007,08,02,08,29,17.70
2007,08,02,08,30,17.70
2007,08,02,08,31,17.70
2007,08,02,08,32,17.70
2007,08,02,08,33,17.70
2007,08,02,08,34,17.70
2007,08,02,08,35,17.70
2007,08,02,08,36,17.70
2007,08,02,08,37,17.70
2007,08,02,08,38,17.70
2007,08,02,08,39,17.80
2007,08,02,08,40,17.90
2007,08,02,08,41,18.00
2007,08,02,08,42,18.10
2007,08,02,08,43,18.20
2007,08,02,08,44,18.30
2007,08,02,08,45,18.40
2007,08,02,08,46,18.40
2007,08,02,08,47,18.50
2007,08,02,08,48,18.50
2007,08,02,08,49,18.50
2007,08,02,08,50,18.40
2007,08,02,08,51,18.40
2007,08,02,08,52,18.40
2007,08,02,08,53,18.40
2007,08,02,08,54,18.30
2007,08,02,08,55,18.20
2007,08,02,08,56,18.20
2007,08,02,08,57,18.00
2007,08,02,08,58,17.90
2007,08,02,08,59,17.90
2007,08,02,09,00,17.80
2007,08,02,09,01,17.80
2007,08,02,09,02,17.70
2007,08,02,09,03,17.70
2007,08,02,09,04,17.70
2007,08,02,09,05,17.60
2007,08,02,09,06,17.70
2007,08,02,09,07,17.70
2007,08,02,09,08,17.70
2007,08,02,09,09,17.90
2007,08,02,09,10,18.00
2007,08,02,09,11,18.00
2007,08,02,09,12,18.00
2007,08,02,09,13,18.10
2007,08,02,09,14,18.10
2007,08,02,09,15,18.20
2007,08,02,09,16,18.20
2007,08,02,09,17,18.20
2007,08,02,09,18,18.20
2007,08,02,09,19,18.20
2007,08,02,09,20,18.30
2007,08,02,09,21,18.40
2007,08,02,09,22,18.50
2007,08,02,09,23,18.60
2007,08,02,09,24,18.80
2007,08,02,09,25,18.80
2007,08,02,09,26,18.90
2007,08,02,09,27,18.90
2007,08,02,09,28,19.00
2007,08,02,09,29,19.00
2007,08,02,09,30,19.00
2007,08,02,09,31,19.10
2007,08,02,09,32,19.20
2007,08,02,09,33,19.20
2007,08,02,09,34,19.20
2007,08,02,09,35,19.20
2007,08,02,09,36,19.20
2007,08,02,09,37,19.20
2007,08,02,09,38,19.20
2007,08,02,09,39,19.20
2007,08,02,09,40,19.20
2007,08,02,09,41,19.20
2007,08,02,09,42,19.20
2007,08,02,09,43,19.20
2007,08,02,09,44,19.10
2007,08,02,09,45,18.90
2007,08,02,09,46,18.60
2007,08,02,09,47,18.60
2007,08,02,09,48,18.50
2007,08,02,09,49,18.30
2007,08,02,09,50,18.10
2007,08,02,09,51,18.00
2007,08,02,09,52,17.90
2007,08,02,09,53,17.80
2007,08,02,09,54,17.70
2007,08,02,09,55,17.70
2007,08,02,09,56,17.70
2007,08,02,09,57,17.80
2007,08,02,09,58,17.80
2007,08,02,09,59,17.80
2007,08,02,10,00,17.90
2007,08,02,10,01,18.10
2007,08,02,10,02,18.20
2007,08,02,10,03,18.40
2007,08,02,10,04,18.50
2007,08,02,10,05,18.50
2007,08,02,10,06,18.50
2007,08,02,10,07,18.50
2007,08,02,10,08,18.50
2007,08,02,10,09,18.60
2007,08,02,10,10,18.70
2007,08,02,10,11,18.70
2007,08,02,10,12,18.80
2007,08,02,10,13,18.70
2007,08,02,10,14,18.80
2007,08,02,10,15,18.90
2007,08,02,10,16,18.90
2007,08,02,10,17,18.90
2007,08,02,10,18,19.00
2007,08,02,10,19,19.10
2007,08,02,10,20,19.10
2007,08,02,10,21,19.20
2007,08,02,10,22,19.30
2007,08,02,10,23,19.20
2007,08,02,10,24,19.30
2007,08,02,10,25,19.30
2007,08,02,10,26,19.40
2007,08,02,10,27,19.40
2007,08,02,10,28,19.50
2007,08,02,10,29,19.60
2007,08,02,10,30,19.60
2007,08,02,10,31,19.70
2007,08,02,10,32,19.80
2007,08,02,10,33,19.80
2007,08,02,10,34,19.80
2007,08,02,10,35,19.80
2007,08,02,10,36,19.90
2007,08,02,10,37,19.90
2007,08,02,10,38,19.80
2007,08,02,10,39,19.70
2007,08,02,10,40,19.60
2007,08,02,10,41,19.60
2007,08,02,10,42,19.50
2007,08,02,10,43,19.50
2007,08,02,10,44,19.50
2007,08,02,10,45,19.60
2007,08,02,10,46,19.60
2007,08,02,10,47,19.50
2007,08,02,10,48,19.60
2007,08,02,10,49,19.70
2007,08,02,10,50,19.90
2007,08,02,10,51,19.90
2007,08,02,10,52,19.90
2007,08,02,10,53,20.00
2007,08,02,10,54,20.10
2007,08,02,10,55,20.30
2007,08,02,10,56,20.30
2007,08,02,10,57,20.50
2007,08,02,10,58,20.60
2007,08,02,10,59,20.70
2007,08,02,11,00,20.70
2007,08,02,11,01,20.70
2007,08,02,11,02,20.80
2007,08,02,11,03,20.80
2007,08,02,11,04,20.90
2007,08,02,11,05,20.90
2007,08,02,11,06,20.90
2007,08,02,11,07,20.90
2007,08,02,11,08,20.90
2007,08,02,11,09,20.90
2007,08,02,11,10,20.80
2007,08,02,11,11,20.90
2007,08,02,11,12,21.00
2007,08,02,11,13,21.00
2007,08,02,11,14,21.10
2007,08,02,11,15,21.10
2007,08,02,11,16,21.20
2007,08,02,11,17,21.20
2007,08,02,11,18,21.20
2007,08,02,11,19,21.10
2007,08,02,11,20,21.10
2007,08,02,11,21,21.30
2007,08,02,11,22,21.30
2007,08,02,11,23,21.40
2007,08,02,11,24,21.50
2007,08,02,11,25,21.60
2007,08,02,11,26,21.50
2007,08,02,11,27,21.40
2007,08,02,11,28,21.30
2007,08,02,11,29,21.20
2007,08,02,11,30,21.10
2007,08,02,11,31,21.10
2007,08,02,11,32,21.10
2007,08,02,11,33,21.10
2007,08,02,11,34,21.10
2007,08,02,11,35,21.10
2007,08,02,11,36,21.10
2007,08,02,11,37,21.20
2007,08,02,11,38,21.40
2007,08,02,11,39,21.60
2007,08,02,11,40,21.70
2007,08,02,11,41,21.80
2007,08,02,11,42,22.00
2007,08,02,11,43,22.10
2007,08,02,11,44,22.30
2007,08,02,11,45,22.30
2007,08,02,11,46,22.20
2007,08,02,11,47,22.10
2007,08,02,11,48,22.10
2007,08,02,11,49,22.10
2007,08,02,11,50,22.20
2007,08,02,11,51,22.30
2007,08,02,11,52,22.30
2007,08,02,11,53,22.30
2007,08,02,11,54,22.40
2007,08,02,11,55,22.40
2007,08,02,11,56,22.60
2007,08,02,11,57,22.70
2007,08,02,11,58,22.80
2007,08,02,11,59,22.90
2007,08,02,12,00,22.80
2007,08,02,12,01,22.90
2007,08,02,12,02,22.90
2007,08,02,12,03,23.00
2007,08,02,12,04,23.00
2007,08,02,12,05,23.10
2007,08,02,12,06,23.00
2007,08,02,12,07,22.90
2007,08,02,12,08,22.90
2007,08,02,12,09,23.00
2007,08,02,12,10,23.10
2007,08,02,12,11,23.10
2007,08,02,12,12,23.00
2007,08,02,12,13,22.90
2007,08,02,12,14,22.80
2007,08,02,12,15,22.70
2007,08,02,12,16,22.70
2007,08,02,12,17,22.60
2007,08,02,12,18,22.60
2007,08,02,12,19,22.60
2007,08,02,12,20,22.50
2007,08,02,12,21,22.50
2007,08,02,12,22,22.50
2007,08,02,12,23,22.30
2007,08,02,12,24,22.30
2007,08,02,12,25,22.30
2007,08,02,12,26,22.30
2007,08,02,12,27,22.30
2007,08,02,12,28,22.30
2007,08,02,12,29,22.40
2007,08,02,12,30,22.20
2007,08,02,12,31,21.90
2007,08,02,12,32,21.60
2007,08,02,12,33,21.10
2007,08,02,12,34,20.70
2007,08,02,12,35,20.20
2007,08,02,12,36,19.90
2007,08,02,12,37,19.50
2007,08,02,12,38,19.30
2007,08,02,12,39,19.20
2007,08,02,12,40,19.10
2007,08,02,12,41,18.90
2007,08,02,12,42,18.60
2007,08,02,12,43,18.30
2007,08,02,12,44,18.20
2007,08,02,12,45,18.10
2007,08,02,12,46,18.10
2007,08,02,12,47,18.10
2007,08,02,12,48,18.10
2007,08,02,12,49,18.20
2007,08,02,12,50,18.30
2007,08,02,12,51,18.30
2007,08,02,12,52,18.30
2007,08,02,12,53,18.30
2007,08,02,12,54,18.40
2007,08,02,12,55,18.50
2007,08,02,12,56,18.70
2007,08,02,12,57,18.90
2007,08,02,12,58,18.90
2007,08,02,12,59,19.00
2007,08,02,13,00,19.00
2007,08,02,13,01,19.10
2007,08,02,13,02,19.20
2007,08,02,13,03,19.40
2007,08,02,13,04,19.50
2007,08,02,13,05,19.60
2007,08,02,13,06,19.60
2007,08,02,13,07,19.80
2007,08,02,13,08,19.70
2007,08,02,13,09,19.50
2007,08,02,13,10,19.40
2007,08,02,13,11,19.20
2007,08,02,13,12,19.20
2007,08,02,13,13,19.20
2007,08,02,13,14,19.20
2007,08,02,13,15,19.20
2007,08,02,13,16,19.00
2007,08,02,13,17,18.90
2007,08,02,13,18,18.80
2007,08,02,13,19,18.90
2007,08,02,13,20,18.90
2007,08,02,13,21,18.90
2007,08,02,13,22,18.90
2007,08,02,13,23,18.90
2007,08,02,13,24,18.80
2007,08,02,13,25,18.80
2007,08,02,13,26,18.90
2007,08,02,13,27,19.10
2007,08,02,13,28,19.20
2007,08,02,13,29,19.30
2007,08,02,13,30,19.40
2007,08,02,13,31,19.50
2007,08,02,13,32,19.50
2007,08,02,13,33,19.50
2007,08,02,13,34,19.50
2007,08,02,13,35,19.60
2007,08,02,13,36,19.60
2007,08,02,13,37,19.70
2007,08,02,13,38,19.80
2007,08,02,13,39,20.00
2007,08,02,13,40,20.00
2007,08,02,13,41,20.00
2007,08,02,13,42,19.80
2007,08,02,13,43,19.60
2007,08,02,13,44,19.50
2007,08,02,13,45,19.30
2007,08,02,13,46,19.30
2007,08,02,13,47,19.20
2007,08,02,13,48,19.30
2007,08,02,13,49,19.30
2007,08,02,13,50,19.40
2007,08,02,13,51,19.40
2007,08,02,13,52,19.50
2007,08,02,13,53,19.60
2007,08,02,13,54,19.60
2007,08,02,13,55,19.50
2007,08,02,13,56,19.50
2007,08,02,13,57,19.40
2007,08,02,13,58,19.30
2007,08,02,13,59,19.30
2007,08,02,14,00,19.30
2007,08,02,14,01,19.30
2007,08,02,14,02,19.40
2007,08,02,14,03,19.50
2007,08,02,14,04,19.60
2007,08,02,14,05,19.70
2007,08,02,14,06,19.70
2007,08,02,14,07,19.70
2007,08,02,14,08,19.80
2007,08,02,14,09,20.10
2007,08,02,14,10,20.60
2007,08,02,14,11,21.00
2007,08,02,14,12,21.40
2007,08,02,14,13,21.70
2007,08,02,14,14,22.00
2007,08,02,14,15,22.30
2007,08,02,14,16,22.40
2007,08,02,14,17,22.50
2007,08,02,14,18,22.60
2007,08,02,14,19,22.70
2007,08,02,14,20,22.80
2007,08,02,14,21,22.90
2007,08,02,14,22,22.90
2007,08,02,14,23,23.00
2007,08,02,14,24,23.10
2007,08,02,14,25,23.30
2007,08,02,14,26,23.40
2007,08,02,14,27,23.50
2007,08,02,14,28,23.70
2007,08,02,14,29,23.80
2007,08,02,14,30,23.80
2007,08,02,14,31,23.80
2007,08,02,14,32,23.90
2007,08,02,14,33,24.00
2007,08,02,14,34,24.00
2007,08,02,14,35,24.00
2007,08,02,14,36,24.00
2007,08,02,14,37,23.80
2007,08,02,14,38,23.80
2007,08,02,14,39,23.80
2007,08,02,14,40,23.80
2007,08,02,14,41,23.80
2007,08,02,14,42,23.80
2007,08,02,14,43,23.70
2007,08,02,14,44,23.70
2007,08,02,14,45,23.60
2007,08,02,14,46,23.60
2007,08,02,14,47,23.50
2007,08,02,14,48,23.50
2007,08,02,14,49,23.40
2007,08,02,14,50,23.30
2007,08,02,14,51,23.20
2007,08,02,14,52,23.30
2007,08,02,14,53,23.20
2007,08,02,14,54,23.20
2007,08,02,14,55,23.20
2007,08,02,14,56,23.40
2007,08,02,14,57,23.50
2007,08,02,14,58,23.60
2007,08,02,14,59,23.70
2007,08,02,15,00,23.70
2007,08,02,15,01,23.70
2007,08,02,15,02,23.70
2007,08,02,15,03,23.80
2007,08,02,15,04,23.90
2007,08,02,15,05,23.90
2007,08,02,15,06,23.90
2007,08,02,15,07,23.90
2007,08,02,15,08,24.00
2007,08,02,15,09,23.90
2007,08,02,15,10,23.90
2007,08,02,15,11,23.90
2007,08,02,15,12,23.80
2007,08,02,15,13,23.90
2007,08,02,15,14,24.00
2007,08,02,15,15,23.90
2007,08,02,15,16,23.90
2007,08,02,15,17,23.90
2007,08,02,15,18,23.90
2007,08,02,15,19,24.00
2007,08,02,15,20,24.00
2007,08,02,15,21,24.00
2007,08,02,15,22,23.90
2007,08,02,15,23,23.90
2007,08,02,15,24,23.80
2007,08,02,15,25,23.80
2007,08,02,15,26,23.90
2007,08,02,15,27,24.00
2007,08,02,15,28,24.00
2007,08,02,15,29,24.10
2007,08,02,15,30,24.10
2007,08,02,15,31,24.20
2007,08,02,15,32,24.20
2007,08,02,15,33,24.20
2007,08,02,15,34,24.30
2007,08,02,15,35,24.30
2007,08,02,15,36,24.30
2007,08,02,15,37,24.30
2007,08,02,15,38,24.30
2007,08,02,15,39,24.40
2007,08,02,15,40,24.40
2007,08,02,15,41,24.40
2007,08,02,15,42,24.40
2007,08,02,15,43,24.40
2007,08,02,15,44,24.30
2007,08,02,15,45,24.30
2007,08,02,15,46,24.20
2007,08,02,15,47,24.10
2007,08,02,15,48,23.90
2007,08,02,15,49,23.90
2007,08,02,15,50,24.00
2007,08,02,15,51,24.20
2007,08,02,15,52,24.40
2007,08,02,15,53,24.60
2007,08,02,15,54,24.80
2007,08,02,15,55,24.90
2007,08,02,15,56,25.10
2007,08,02,15,57,25.20
2007,08,02,15,58,25.40
2007,08,02,15,59,25.60
2007,08,02,16,00,25.70
2007,08,02,16,01,25.90
2007,08,02,16,02,26.00
2007,08,02,16,03,26.10
2007,08,02,16,04,26.20
2007,08,02,16,05,26.30
2007,08,02,16,06,26.40
2007,08,02,16,07,26.50
2007,08,02,16,08,26.50
2007,08,02,16,09,26.50
2007,08,02,16,10,26.60
2007,08,02,16,11,26.60
2007,08,02,16,12,26.70
2007,08,02,16,13,26.80
2007,08,02,16,14,26.80
2007,08,02,16,15,27.00
2007,08,02,16,16,27.00
2007,08,02,16,17,26.90
2007,08,02,16,18,26.80
2007,08,02,16,19,26.60
2007,08,02,16,20,26.40
2007,08,02,16,21,26.30
2007,08,02,16,22,26.20
2007,08,02,16,23,26.20
2007,08,02,16,24,26.30
2007,08,02,16,25,26.30
2007,08,02,16,26,26.30
2007,08,02,16,27,26.30
2007,08,02,16,28,26.30
2007,08,02,16,29,26.30
2007,08,02,16,30,26.20
2007,08,02,16,31,26.20
2007,08,02,16,32,26.10
2007,08,02,16,33,26.20
2007,08,02,16,34,26.20
2007,08,02,16,35,26.10
2007,08,02,16,36,26.00
2007,08,02,16,37,25.90
2007,08,02,16,38,25.80
2007,08,02,16,39,25.80
2007,08,02,16,40,25.80
2007,08,02,16,41,25.80
2007,08,02,16,42,25.80
2007,08,02,16,43,25.90
2007,08,02,16,44,26.00
2007,08,02,16,45,26.10
2007,08,02,16,46,26.30
2007,08,02,16,47,26.50
2007,08,02,16,48,26.60
2007,08,02,16,49,26.80
2007,08,02,16,50,26.90
2007,08,02,16,51,26.90
2007,08,02,16,52,27.00
2007,08,02,16,53,27.10
2007,08,02,16,54,27.20
2007,08,02,16,55,27.20
2007,08,02,16,56,27.20
2007,08,02,16,57,27.10
2007,08,02,16,58,27.10
2007,08,02,16,59,27.10
2007,08,02,17,00,27.10
2007,08,02,17,01,27.20
2007,08,02,17,02,27.20
2007,08,02,17,03,27.20
2007,08,02,17,04,27.20
2007,08,02,17,05,27.20
2007,08,02,17,06,27.20
2007,08,02,17,07,27.20
2007,08,02,17,08,27.20
2007,08,02,17,09,27.20
2007,08,02,17,10,27.30
2007,08,02,17,11,27.30
2007,08,02,17,12,27.30
2007,08,02,17,13,27.20
2007,08,02,17,14,26.90
2007,08,02,17,15,26.50
2007,08,02,17,16,26.10
2007,08,02,17,17,25.90
2007,08,02,17,18,25.90
2007,08,02,17,19,25.70